Wind_Speed
30 31 32 33 35 36 38 39 40 41 42 42 42 41 42 42 42 42 42 37 33 30 28 28 29 29 28 28 29 31 33 35 36 36 36 37 37 35 33 31 29 29 29 29 29 29 29 29 30 30 30 31 32 32 33 33 33 33 32 32 32 31 31 30 30 30 30 30 29
30 30 31 32 34 36 38 39 40 41 41 42 42 42 43 43 41 41 40 36 31 29 29 27 27 27 28 29 30 31 32 33 33 34 35 36 36 35 34 33 31 30 29 29 29 30 30 30 30 30 30 30 31 31 31 32 32 32 32 32 32 32 31 31 31 30 30 30 29
29 30 31 32 34 36 38 39 40 41 41 41 42 43 44 44 42 40 38 34 30 29 28 28 27 27 28 30 31 31 32 32 32 32 33 34 35 35 34 33 31 30 29 29 29 30 30 31 31 30 30 30 31 31 31 31 31 31 32 32 33 32 32 32 31 31 31 30 30
29 30 32 33 35 37 38 39 40 41 42 42 43 44 45 45 44 40 37 34 30 28 28 28 28 28 29 31 32 32 32 32 32 31 31 32 34 34 33 33 30 28 27 27 28 29 30 31 32 32 32 32 31 31 31 31 31 32 33 33 33 33 33 32 32 32 32 32 31
30 31 32 34 35 36 37 39 39 41 42 43 43 44 45 45 44 41 38 35 32 30 29 29 29 30 31 32 33 34 34 33 33 32 31 31 32 32 32 32 29 26 26 26 26 27 29 31 32 33 33 33 32 32 31 31 31 32 33 34 34 34 33 33 33 32 32 32 32
31 32 33 34 35 35 37 38 39 41 42 42 42 43 45 46 45 43 40 38 35 34 32 31 30 30 30 32 33 35 36 35 34 33 32 31 31 31 31 31 29 27 26 26 26 28 29 31 32 33 33 33 32 32 32 31 32 33 33 34 34 34 34 33 33 33 33 33 33
31 32 33 33 34 35 36 37 38 40 40 40 41 42 44 46 46 45 43 42 39 37 35 33 31 28 28 29 32 35 38 37 36 35 34 32 32 31 30 30 29 29 28 28 28 29 31 32 33 33 34 33 33 32 32 31 32 32 33 33 34 34 34 33 33 33 33 33 34
30 31 31 32 32 33 34 35 36 38 39 39 40 41 43 45 47 46 45 44 41 39 37 35 32 28 26 27 30 34 37 39 38 37 35 34 33 32 31 30 29 29 30 30 31 32 33 34 34 34 34 34 33 33 32 31 31 32 32 32 33 33 33 33 33 33 33 33 34
29 29 30 30 30 31 31 32 34 35 37 38 39 40 42 44 46 46 46 44 43 41 39 36 34 29 26 26 28 31 35 37 39 39 38 37 36 34 33 31 31 31 31 31 32 33 34 34 34 34 34 34 34 34 34 32 31 31 31 32 32 32 33 33 33 32 33 33 34
27 27 27 27 28 29 29 30 31 33 35 36 37 38 39 41 44 45 46 45 43 41 40 37 35 31 28 27 27 29 31 34 36 38 39 39 38 37 36 35 34 34 33 31 31 32 33 33 33 33 33 34 34 34 35 34 32 31 31 31 31 31 32 33 33 33 33 33 34
26 26 26 26 27 27 28 28 29 31 32 33 34 35 37 39 41 43 43 42 41 41 41 39 36 33 31 29 28 29 30 32 33 35 37 38 39 38 38 39 38 37 36 34 32 31 32 32 33 33 33 33 34 35 35 34 33 31 31 31 31 31 31 32 33 33 33 33 33
26 26 26 26 26 26 27 27 28 29 30 31 32 33 34 36 38 39 39 39 40 40 40 39 37 35 33 31 30 30 30 31 31 33 35 37 38 38 39 39 39 39 37 35 33 32 32 32 32 33 33 33 34 34 34 34 33 32 31 31 30 31 31 32 32 33 32 32 32
26 26 26 26 26 26 26 27 27 28 28 29 29 30 31 33 35 36 37 37 37 38 38 38 37 36 35 33 32 31 31 31 32 33 34 36 37 38 39 40 40 40 39 37 35 34 33 32 33 33 33 34 34 35 35 34 33 32 31 31 31 32 32 33 33 32 31 31 30
26 26 26 26 26 26 26 26 27 27 28 28 28 28 29 30 32 33 34 34 35 35 35 35 34 35 35 34 34 33 32 32 32 33 34 35 36 38 39 41 41 41 40 39 37 36 34 33 33 33 34 34 34 35 35 35 34 33 33 33 33 33 34 33 33 32 31 30 30
26 26 26 26 27 27 27 27 27 27 28 28 28 28 28 29 30 32 33 33 33 33 33 33 33 33 33 34 34 34 34 33 33 33 34 35 36 38 40 41 42 42 41 40 39 38 36 35 34 34 34 34 35 35 35 35 35 34 34 34 34 34 34 33 32 31 31 31 30
27 27 27 27 27 27 27 27 26 26 27 28 28 28 28 28 29 31 32 32 32 32 32 32 32 32 32 33 33 33 34 34 33 34 34 36 37 38 40 41 42 43 43 41 40 39 37 36 35 34 34 34 34 34 34 34 35 35 35 35 35 34 34 33 32 31 31 31 31
27 28 28 28 29 28 28 28 27 26 27 28 28 28 28 28 29 30 31 32 32 31 31 31 31 31 31 31 32 33 33 33 33 34 35 36 37 38 39 40 42 43 43 42 40 38 37 36 36 35 35 34 34 33 33 33 34 34 34 34 34 34 33 33 33 32 32 31 31
28 28 28 29 29 30 29 29 28 27 27 28 28 28 28 28 28 29 30 31 32 31 31 30 30 30 30 30 31 32 32 33 33 33 34 35 36 37 38 40 41 42 42 41 39 37 36 36 36 36 35 35 34 34 33 33 33 33 33 33 33 33 33 33 33 33 32 32 32
28 28 28 28 29 29 30 30 29 28 27 27 28 28 28 28 27 28 29 30 31 31 30 30 29 29 29 30 31 31 32 32 32 32 33 34 35 36 37 38 39 39 39 38 37 36 35 35 35 35 35 35 35 34 34 33 32 32 32 32 32 33 33 33 33 33 33 33 33
28 28 28 28 27 28 28 28 28 28 27 27 27 28 28 28 27 27 28 29 29 30 29 29 29 29 29 30 30 31 31 31 31 31 31 32 33 34 35 35 36 36 36 36 35 35 34 34 34 34 34 34 35 35 34 33 33 32 32 32 32 32 33 33 34 34 35 35 36
29 28 27 27 26 26 26 26 26 26 26 26 27 27 27 28 28 28 28 28 28 29 29 29 29 29 29 29 30 30 30 30 30 30 30 30 31 32 32 33 33 33 34 34 34 33 33 33 33 33 33 34 34 34 34 34 33 33 32 32 32 33 33 34 34 35 36 37 37
29 28 27 27 26 26 26 25 24 24 25 26 26 26 27 28 28 28 28 27 28 29 29 30 29 29 29 29 29 29 29 29 29 29 29 29 29 30 30 31 31 32 32 32 32 32 32 32 32 32 32 33 33 34 34 34 34 34 33 33 34 34 35 35 35 36 36 37 38
29 28 27 27 27 27 26 25 24 24 25 26 26 26 27 28 28 28 28 28 28 29 30 30 29 29 28 28 28 28 28 28 28 28 28 28 28 28 29 29 30 30 31 31 31 32 32 32 32 32 32 32 32 33 33 34 34 35 35 36 36 37 37 37 37 37 38 39 39
28 28 27 27 27 27 27 26 26 26 26 26 27 27 28 28 28 29 29 30 29 30 30 30 30 29 28 28 28 28 28 28 28 28 28 28 27 27 28 28 29 29 30 30 30 31 31 31 31 31 32 32 32 32 33 33 34 35 37 37 38 38 39 39 39 40 40 40 40
28 27 27 27 27 27 28 27 27 27 27 27 27 27 28 28 29 29 30 30 30 31 31 31 30 30 29 29 28 28 28 28 29 29 29 29 28 28 27 28 28 28 29 29 29 29 30 30 30 31 31 31 32 32 33 34 35 36 37 38 39 39 39 40 40 41 41 41 40
28 27 27 27 27 27 28 28 28 28 27 27 27 28 28 28 29 29 30 30 30 31 31 31 31 31 31 30 30 29 29 29 29 30 30 30 30 29 29 28 28 28 28 28 28 29 29 29 29 30 30 31 32 33 34 35 36 37 37 38 39 39 39 40 40 40 40 40 39
28 27 27 27 27 27 28 28 28 28 27 27 28 28 28 28 28 29 29 30 30 30 30 31 31 32 32 32 31 31 31 31 30 30 30 31 31 31 31 30 29 29 29 29 29 29 29 29 30 30 31 32 33 34 35 36 36 37 38 38 38 38 39 39 39 39 39 38 37
29 29 28 27 27 27 27 27 28 28 28 28 28 28 28 28 28 28 29 29 29 29 30 30 31 32 32 33 33 33 33 33 32 31 31 31 32 32 32 32 32 31 30 30 30 30 30 31 31 31 32 33 34 34 35 36 37 37 38 38 38 38 38 38 39 38 38 37 36
30 31 30 29 28 27 27 27 28 28 28 28 28 28 28 28 28 28 29 29 29 29 30 30 31 31 32 34 34 35 35 34 34 33 32 32 32 32 33 33 33 33 33 32 32 32 32 32 32 33 33 34 35 36 36 37 37 37 37 37 37 38 38 38 38 38 37 37 37
30 32 33 32 30 28 27 27 28 28 28 28 28 28 28 28 28 29 29 29 29 30 30 30 30 31 32 34 35 36 36 36 36 35 34 34 34 34 35 35 35 35 35 35 35 35 34 34 34 34 34 35 35 36 37 37 37 36 36 36 37 37 38 38 38 38 38 37 37
29 31 34 34 33 30 28 27 27 28 28 28 28 29 29 29 29 29 29 29 30 30 30 30 31 31 32 33 34 35 36 37 37 37 37 37 37 38 38 38 38 38 38 38 38 38 37 37 36 36 36 36 37 37 37 37 37 37 37 37 37 37 37 37 38 37 37 36 35
29 30 32 35 35 33 30 28 27 27 28 28 29 29 29 30 30 30 30 29 29 30 30 31 31 32 32 33 33 35 36 36 37 38 39 39 39 39 39 39 39 39 40 40 40 40 39 39 38 37 37 37 37 38 38 38 38 38 38 38 38 37 37 37 36 35 35 34 35
28 29 30 33 35 35 34 31 28 27 28 28 29 29 30 30 30 30 30 30 29 30 30 31 31 32 32 33 33 34 34 35 36 37 38 38 39 39 39 39 39 39 40 40 40 40 39 39 38 38 37 37 37 38 38 38 38 39 39 39 38 38 37 36 35 34 34 34 35
28 28 29 30 32 34 35 34 32 29 28 29 29 29 30 30 30 30 30 30 30 30 30 31 31 31 32 32 32 33 33 33 34 34 35 36 36 36 37 37 36 37 38 38 39 38 37 37 36 36 35 35 36 37 37 38 38 39 39 39 38 38 36 35 35 35 35 35 35
28 28 28 29 30 32 34 36 35 33 31 30 29 29 29 30 30 30 30 30 30 30 30 30 30 30 30 30 31 31 31 32 32 33 33 33 33 33 32 31 31 32 34 35 35 35 34 33 32 32 32 33 34 35 36 37 37 38 38 38 37 36 36 35 35 35 35 35 34
28 28 28 28 29 29 31 34 35 35 34 32 30 29 29 29 30 30 29 29 29 29 29 29 29 29 29 29 29 29 30 30 31 31 31 31 30 29 27 25 27 29 30 30 30 30 29 28 27 27 27 29 30 32 34 35 35 36 36 36 36 35 35 35 35 35 34 33 32
28 28 29 28 28 28 29 31 33 35 36 35 33 31 29 29 29 29 29 28 28 29 29 28 28 28 28 27 27 26 27 28 28 29 29 28 27 25 23 24 27 28 28 27 26 25 24 23 23 23 23 24 26 28 29 31 32 34 34 34 34 34 34 35 35 34 34 33 31
28 29 29 29 29 28 28 29 31 33 35 35 35 33 31 29 28 27 27 27 27 27 27 27 27 27 26 25 23 22 22 23 24 25 24 24 25 25 26 28 29 28 27 26 24 23 22 21 21 21 21 21 22 23 25 27 29 31 32 32 33 33 33 34 34 33 33 32 30
28 28 29 29 29 29 28 28 29 31 32 33 34 34 33 32 29 27 26 26 26 25 24 23 23 24 24 25 24 23 23 24 24 24 24 24 26 28 29 30 29 28 27 25 23 22 21 21 21 20 20 19 19 19 21 24 26 28 30 30 30 31 31 33 33 32 32 31 29
28 28 28 29 29 29 29 28 28 29 30 30 31 32 32 32 31 29 26 25 23 22 22 23 24 24 25 27 29 30 30 29 28 28 28 28 29 30 30 30 29 28 27 25 24 23 23 22 22 21 20 18 17 18 20 23 25 27 28 28 27 27 28 30 30 30 29 28 27
27 27 28 28 29 29 29 28 28 28 29 29 29 29 29 29 29 29 26 23 21 22 23 25 25 27 28 29 30 31 32 32 31 30 30 30 30 30 30 30 29 29 27 26 25 24 24 24 23 22 21 20 19 20 21 23 25 26 25 24 23 24 25 26 26 26 25 25 24
Wind_Direction
210 211 211 211 209 208 207 205 204 203 201 200 198 196 196 195 195 195 193 193 194 196 197 198 198 197 197 199 200 200 201 202 203 205 206 207 207 208 209 209 210 213 215 214 210 207 207 210 215 220 222 224 226 228 230 232 234 236 239 241 243 244 245 245 245 245 245 244 245
209 210 211 211 210 209 208 205 204 203 202 201 199 197 196 194 194 195 195 195 196 197 198 198 199 198 197 196 196 195 195 197 199 201 203 205 206 207 208 208 208 209 210 210 207 205 204 207 212 216 219 222 224 226 229 232 234 237 240 243 244 246 246 247 246 246 246 246 247
205 207 209 210 210 209 207 205 204 202 201 200 199 197 196 194 193 194 194 195 196 197 198 199 200 200 198 195 193 191 191 192 194 197 199 201 203 204 204 203 203 205 206 206 205 205 205 207 212 215 218 221 223 226 229 233 236 239 241 244 245 246 247 247 247 247 247 247 248
202 204 206 208 209 209 208 207 206 204 202 200 199 198 196 194 193 193 193 192 194 195 197 198 200 200 198 195 192 190 189 190 192 194 196 198 199 199 198 196 196 197 200 203 205 207 209 211 214 217 220 223 225 228 232 235 238 240 243 244 245 245 246 247 248 248 247 248 248
202 204 206 208 209 210 210 210 208 205 203 201 199 198 196 194 193 193 192 190 191 193 195 197 198 199 199 197 194 192 191 191 192 194 196 197 196 195 193 191 190 192 198 203 207 211 214 216 219 221 223 226 229 233 235 238 240 241 243 244 244 245 246 247 248 248 248 248 249
203 206 208 209 210 210 210 211 211 208 205 202 200 198 197 196 195 194 193 191 191 192 193 194 195 196 198 198 198 196 195 194 195 196 197 198 198 196 194 193 194 197 203 209 214 218 221 223 224 224 226 229 232 235 237 239 240 241 242 243 244 244 245 247 248 248 249 249 250
204 207 209 209 210 210 211 212 213 211 207 204 201 200 199 199 198 197 196 194 194 194 194 193 191 192 195 198 200 200 200 199 198 199 199 200 201 201 201 201 203 208 213 218 222 225 227 227 227 228 228 230 232 235 237 238 240 241 241 241 243 244 245 246 247 248 249 249 250
206 209 210 210 211 211 213 213 212 210 208 206 205 204 204 203 202 201 200 198 198 197 196 195 191 190 192 197 200 202 203 203 203 202 202 203 204 205 207 209 211 215 220 224 226 228 229 229 229 229 229 230 232 234 235 234 237 239 240 240 242 243 244 245 246 247 248 249 250
206 209 210 209 210 211 212 211 210 208 207 207 208 208 208 207 206 205 204 203 202 201 200 198 194 192 194 197 199 202 204 206 206 207 207 207 208 210 212 215 217 220 224 226 227 227 228 228 228 229 229 229 231 233 234 233 234 235 237 239 240 242 244 245 245 245 247 248 250
204 205 205 205 207 208 208 208 207 207 208 209 211 212 212 211 211 209 208 207 206 205 204 202 199 198 198 200 200 201 203 205 207 209 210 211 213 215 217 220 222 224 226 227 227 225 225 225 226 227 228 229 231 233 234 234 232 232 233 236 238 239 242 244 245 246 246 247 248
200 199 199 200 202 204 204 204 204 206 208 210 212 213 214 213 213 212 210 210 209 208 207 206 204 203 203 203 202 202 203 205 206 208 211 213 215 217 219 222 224 226 227 228 227 224 221 221 223 225 227 229 231 233 233 233 231 230 230 233 236 237 239 242 245 246 245 245 246
195 194 194 196 198 200 200 200 202 204 206 209 211 212 212 213 213 212 211 210 210 210 210 209 207 206 206 206 205 204 204 205 206 207 209 212 214 216 219 221 224 225 225 226 226 224 220 219 221 224 227 229 231 232 232 232 231 229 229 230 234 236 239 241 243 243 243 242 242
191 190 191 193 195 197 197 197 198 201 203 205 206 208 209 210 211 210 209 209 209 210 209 209 208 208 208 207 206 205 205 205 206 206 208 210 212 215 217 219 221 223 223 224 225 223 221 219 221 223 226 228 230 232 233 232 231 230 230 232 234 236 239 241 241 241 240 240 240
189 188 188 190 192 193 194 194 196 198 200 201 202 202 204 206 207 206 206 206 206 207 207 207 206 207 207 207 206 206 206 206 206 207 209 210 212 214 216 217 219 220 221 222 223 223 221 220 221 223 226 228 230 232 234 234 233 233 234 235 236 237 238 240 240 239 239 239 239
188 188 187 188 189 190 191 192 194 197 199 199 198 199 200 202 203 203 203 203 203 203 204 203 204 204 205 206 206 207 208 208 209 210 211 213 213 213 214 215 217 218 220 221 223 223 223 221 221 223 225 228 230 232 234 236 238 239 239 239 239 238 238 238 238 238 238 238 239
190 190 190 190 190 191 191 191 193 197 199 199 198 197 198 199 201 202 202 201 201 201 201 202 202 203 205 207 208 209 211 212 213 213 214 213 213 212 212 213 215 217 219 221 222 223 223 222 222 222 224 227 229 232 234 237 240 242 242 241 240 239 238 237 237 237 238 238 239
191 193 195 195 195 194 194 193 194 197 200 201 199 198 198 199 200 201 202 201 201 201 202 203 204 205 206 208 211 212 212 213 213 213 212 211 210 210 210 211 213 216 218 220 221 222 222 222 223 224 225 227 229 231 233 236 238 241 242 242 241 240 239 238 237 237 238 239 239
191 194 197 200 200 199 197 196 197 199 202 203 202 201 200 200 200 201 202 203 203 203 204 205 206 207 208 209 210 210 210 210 210 210 210 209 208 208 209 211 213 215 218 220 220 221 222 223 225 226 227 228 230 231 232 233 235 237 239 241 241 241 241 240 239 238 237 238 238
192 193 197 201 202 201 200 200 200 202 203 205 204 204 203 202 201 201 203 205 205 205 205 205 206 206 207 207 207 207 207 207 207 207 208 208 208 208 210 211 213 215 217 219 220 221 222 223 225 227 229 230 231 231 231 231 232 234 237 239 241 242 243 242 240 238 237 236 236
194 195 197 199 200 201 201 202 204 205 205 205 206 205 204 203 201 201 203 205 205 204 204 204 204 204 204 204 204 204 204 205 205 206 207 207 208 208 209 210 211 213 215 217 219 220 222 223 225 228 230 231 232 231 231 231 231 233 235 238 240 242 242 242 240 238 237 236 235
196 197 198 199 200 200 201 204 206 206 205 205 205 205 204 203 202 202 203 204 203 202 201 202 202 202 202 202 202 202 203 204 205 206 206 207 207 208 208 209 210 211 213 215 218 220 222 223 225 227 229 231 232 232 231 231 231 232 234 236 238 240 240 240 239 238 238 238 239
198 198 199 199 199 200 201 203 204 204 203 202 202 203 202 202 202 202 202 202 201 200 200 201 201 201 201 201 201 201 202 203 204 205 206 206 207 207 208 208 209 211 212 214 216 219 221 223 225 226 228 230 231 232 233 233 233 233 233 234 236 237 238 238 239 239 241 243 245
198 199 200 200 200 200 201 201 201 200 200 200 201 201 201 201 201 201 200 200 200 200 200 201 201 201 201 201 201 202 202 203 205 206 206 207 208 208 209 210 210 211 213 214 216 218 220 222 224 225 227 229 231 232 233 234 234 234 234 234 235 236 238 239 240 242 245 248 250
198 199 199 200 200 200 201 201 199 198 198 199 200 200 201 201 201 200 200 200 200 201 202 202 203 203 203 203 203 203 204 205 206 207 208 208 209 209 210 212 213 214 214 216 217 218 220 222 223 224 226 228 229 231 233 234 235 235 235 236 237 239 241 242 245 247 249 252 254
199 199 199 200 200 201 201 201 199 198 198 199 200 200 201 201 201 200 200 200 200 201 203 204 205 205 205 205 205 206 207 207 208 209 209 209 210 210 211 212 214 215 216 217 218 219 221 222 223 224 225 227 229 231 232 234 235 237 238 240 242 244 246 248 250 252 254 256 257
199 200 200 200 200 201 201 201 200 199 199 199 200 201 202 201 201 201 201 201 201 202 203 205 207 207 208 208 208 208 209 211 211 212 211 211 211 211 211 212 213 214 215 217 218 219 221 223 224 226 227 228 230 231 233 235 237 239 241 244 246 249 251 253 255 257 258 259 261
200 200 201 201 201 201 201 201 201 200 200 200 201 202 202 202 201 201 201 202 202 203 205 206 208 209 210 210 211 212 213 213 214 214 214 214 214 214 213 213 213 214 215 217 218 220 221 224 226 228 229 231 232 234 235 237 239 241 244 246 249 252 254 256 258 259 260 262 263
200 201 201 202 202 202 202 202 202 201 201 201 202 203 203 202 202 202 202 203 203 204 206 207 209 210 212 213 214 215 216 217 217 217 217 217 217 217 217 217 217 218 218 219 221 222 224 226 228 231 232 234 235 237 239 241 242 244 245 248 251 253 256 257 258 259 261 263 264
201 202 202 202 203 203 203 203 203 203 203 203 203 203 203 203 203 203 203 204 205 205 206 207 209 211 212 214 216 218 219 220 221 221 221 221 222 222 223 224 225 226 227 227 228 229 231 232 233 234 235 236 238 241 244 245 246 247 248 250 253 254 256 257 258 260 261 264 265
201 203 203 203 203 203 204 204 204 204 204 204 204 204 204 204 205 205 205 205 206 206 207 208 209 210 213 215 218 219 221 223 224 225 226 227 228 229 231 232 234 235 237 238 239 240 241 241 241 240 239 239 240 241 243 245 246 248 250 251 253 254 255 256 258 259 261 263 265
202 203 205 204 203 203 204 205 205 205 205 205 205 205 205 205 206 206 206 206 207 208 208 209 210 212 214 217 219 221 223 225 227 228 230 231 233 235 237 239 240 242 244 246 247 249 250 251 251 249 246 243 242 242 244 245 246 247 249 251 252 254 255 257 257 259 261 263 266
202 203 204 205 205 204 203 204 205 205 205 206 206 206 206 207 207 207 208 208 208 209 209 210 211 213 215 218 221 223 226 228 229 231 233 235 236 238 240 242 244 246 248 250 252 253 255 256 256 255 252 248 245 244 244 245 246 248 249 251 253 255 257 258 260 261 264 267 269
202 203 204 205 206 205 204 204 204 205 206 207 207 207 208 208 208 209 209 209 209 210 210 211 212 214 216 218 221 224 227 229 231 233 236 237 239 241 243 245 247 248 250 252 254 256 257 258 259 258 255 251 248 246 245 246 247 248 250 251 254 256 259 261 263 266 269 271 272
202 202 204 205 206 207 206 205 204 204 205 207 208 209 209 209 210 210 210 210 210 211 212 213 214 215 217 220 222 225 228 231 234 236 239 241 243 245 246 248 250 250 251 252 254 256 257 258 258 258 256 254 251 248 247 247 248 249 251 253 255 258 260 262 266 269 272 274 276
202 203 204 206 207 208 208 208 206 205 205 207 209 210 210 211 211 211 211 211 212 213 213 215 216 217 219 222 224 227 230 233 236 239 242 244 246 248 249 250 249 249 249 249 250 252 254 255 256 256 256 254 253 251 249 249 250 251 253 254 256 258 260 263 266 270 273 275 277
204 204 205 206 208 209 210 210 209 208 207 208 208 210 211 211 212 213 213 213 213 214 215 216 217 218 219 221 224 227 231 235 239 242 245 247 248 249 249 247 242 242 244 245 245 246 249 251 252 253 253 253 252 252 251 251 251 252 253 254 256 258 260 263 266 269 272 274 276
205 205 206 207 208 210 211 211 211 211 211 210 209 210 210 211 213 214 214 215 215 216 216 217 217 218 219 221 224 228 233 237 241 244 246 247 245 241 236 233 233 234 236 237 239 241 244 247 248 248 247 247 248 249 249 250 251 252 253 253 255 257 259 262 265 268 271 272 272
207 208 208 208 209 210 211 212 213 214 214 214 213 211 211 211 212 214 215 215 216 217 218 219 220 221 221 221 223 226 230 231 233 235 236 235 230 224 221 222 226 228 229 229 232 237 243 246 246 245 243 241 242 243 245 248 249 250 251 252 253 255 257 259 262 265 266 266 265
209 210 210 210 210 211 212 213 214 216 217 217 217 215 214 213 213 213 214 215 216 217 219 220 221 222 221 218 213 211 213 216 218 219 218 218 217 217 218 220 223 224 224 225 230 236 242 245 246 245 242 239 239 241 245 248 249 251 251 252 253 254 255 257 258 259 260 260 258
211 211 212 212 212 212 212 214 215 217 218 219 219 219 218 216 215 215 215 215 216 217 219 219 218 216 215 214 211 211 212 214 215 217 217 217 217 217 218 220 222 223 224 226 230 235 240 242 244 244 243 241 241 245 249 251 251 251 251 251 251 250 251 252 254 254 254 254 255
212 213 214 214 214 214 214 214 216 218 219 219 219 219 220 219 218 216 214 213 214 216 217 218 216 213 212 211 211 212 214 215 217 218 220 221 219 219 219 221 222 224 225 228 231 234 237 239 241 243 245 246 248 251 253 254 252 249 246 244 243 243 245 247 249 250 251 253 255
Height
1433 1435 1436 1437 1438 1440 1441 1442 1444 1445 1447 1448 1450 1452 1454 1457 1459 1461 1462 1464 1466 1468 1469 1471 1472 1474 1476 1478 1479 1481 1483 1484 1486 1487 1489 1490 1492 1494 1495 1496 1497 1497 1498 1499 1501 1503 1504 1506 1507 1508 1509 1510 1511 1513 1514 1515 1516 1518 1518 1520 1521 1522 1523 1523 1524 1525 1526 1527 1527
1433 1433 1435 1436 1437 1439 1440 1442 1443 1444 1446 1447 1449 1451 1453 1454 1457 1459 1461 1463 1465 1467 1469 1470 1472 1473 1474 1476 1477 1479 1481 1483 1484 1486 1488 1489 1491 1492 1494 1495 1495 1496 1496 1498 1499 1501 1503 1504 1506 1507 1508 1509 1510 1511 1512 1513 1515 1516 1517 1518 1519 1520 1521 1522 1523 1523 1524 1525 1526
1432 1433 1434 1435 1436 1438 1439 1440 1442 1443 1445 1446 1448 1449 1451 1453 1455 1458 1460 1462 1464 1466 1468 1469 1470 1471 1472 1473 1475 1477 1479 1480 1482 1484 1485 1487 1488 1490 1491 1492 1493 1494 1495 1497 1498 1500 1502 1503 1504 1505 1507 1508 1508 1510 1511 1512 1513 1514 1516 1517 1518 1518 1519 1520 1521 1522 1523 1523 1524
1431 1432 1433 1434 1435 1436 1438 1439 1440 1442 1443 1445 1447 1448 1450 1452 1453 1456 1458 1460 1463 1464 1466 1467 1468 1469 1470 1471 1473 1475 1477 1479 1480 1482 1483 1484 1486 1487 1488 1490 1491 1492 1494 1496 1498 1499 1501 1502 1503 1504 1505 1506 1507 1508 1509 1511 1512 1513 1514 1515 1516 1517 1517 1518 1519 1520 1521 1521 1522
1429 1430 1431 1433 1434 1435 1437 1438 1439 1441 1443 1444 1445 1447 1448 1451 1453 1454 1456 1458 1460 1462 1463 1465 1466 1467 1468 1469 1471 1473 1476 1478 1479 1480 1481 1482 1484 1485 1487 1488 1489 1491 1493 1495 1497 1498 1500 1501 1503 1503 1504 1505 1506 1507 1508 1509 1510 1511 1512 1513 1513 1514 1515 1516 1517 1518 1518 1519 1520
1428 1429 1430 1431 1433 1434 1436 1437 1438 1440 1441 1443 1445 1446 1448 1449 1451 1453 1454 1456 1458 1459 1461 1462 1463 1465 1467 1468 1470 1473 1474 1476 1478 1478 1480 1481 1482 1484 1486 1487 1488 1490 1492 1494 1496 1497 1499 1500 1501 1502 1503 1504 1505 1506 1507 1508 1508 1509 1510 1511 1511 1512 1513 1514 1515 1516 1517 1517 1518
1427 1428 1429 1430 1432 1433 1435 1436 1438 1439 1441 1442 1444 1445 1446 1448 1449 1451 1453 1454 1456 1457 1459 1460 1462 1463 1465 1467 1469 1471 1473 1475 1476 1477 1478 1480 1482 1483 1485 1486 1488 1490 1492 1493 1495 1496 1498 1499 1500 1501 1502 1503 1503 1504 1505 1506 1507 1507 1508 1509 1509 1510 1511 1512 1513 1514 1514 1515 1516
1426 1427 1428 1429 1431 1432 1433 1435 1436 1438 1439 1441 1442 1443 1445 1446 1448 1450 1451 1453 1454 1456 1457 1459 1460 1462 1464 1466 1468 1469 1471 1473 1474 1476 1477 1479 1480 1482 1484 1486 1488 1489 1491 1493 1494 1495 1496 1497 1498 1499 1500 1501 1502 1502 1503 1504 1505 1505 1506 1507 1508 1508 1509 1510 1511 1512 1512 1513 1513
1425 1426 1427 1428 1429 1431 1432 1433 1435 1436 1438 1439 1440 1442 1443 1445 1447 1448 1450 1452 1453 1455 1457 1458 1459 1461 1463 1465 1467 1468 1470 1471 1473 1474 1476 1478 1479 1481 1483 1484 1486 1488 1490 1491 1493 1494 1495 1496 1497 1497 1498 1499 1499 1500 1501 1502 1503 1503 1504 1505 1506 1506 1507 1508 1509 1510 1510 1511 1511
1423 1424 1426 1427 1428 1429 1431 1433 1434 1435 1437 1438 1439 1441 1443 1444 1446 1447 1449 1451 1453 1454 1456 1457 1459 1461 1463 1464 1466 1467 1468 1469 1471 1473 1474 1476 1478 1480 1482 1483 1485 1487 1488 1490 1491 1493 1493 1494 1495 1495 1496 1497 1497 1498 1499 1500 1501 1502 1503 1503 1504 1504 1505 1506 1507 1508 1508 1508 1508
1422 1423 1425 1426 1427 1428 1430 1432 1433 1434 1436 1437 1438 1440 1441 1443 1444 1446 1448 1450 1452 1453 1454 1456 1458 1459 1461 1463 1464 1465 1467 1468 1469 1471 1473 1475 1477 1478 1480 1482 1483 1485 1487 1489 1490 1491 1492 1493 1493 1493 1494 1495 1495 1496 1497 1498 1499 1500 1501 1501 1502 1503 1503 1504 1504 1505 1506 1506 1506
1421 1423 1424 1425 1426 1428 1429 1431 1432 1433 1434 1436 1437 1438 1440 1441 1443 1444 1447 1448 1450 1451 1453 1454 1456 1458 1459 1461 1463 1464 1465 1467 1468 1469 1471 1473 1475 1477 1479 1481 1482 1484 1485 1488 1489 1490 1491 1491 1491 1492 1492 1493 1493 1494 1495 1496 1497 1498 1499 1500 1500 1501 1501 1502 1502 1503 1503 1504 1504
1421 1422 1423 1425 1426 1427 1428 1430 1431 1433 1433 1435 1436 1438 1438 1440 1441 1443 1445 1447 1448 1449 1451 1453 1454 1456 1458 1459 1461 1462 1464 1465 1466 1468 1469 1471 1473 1475 1478 1479 1481 1482 1484 1486 1487 1488 1488 1489 1489 1490 1490 1491 1491 1492 1493 1494 1495 1496 1497 1498 1498 1499 1499 1499 1500 1500 1501 1502 1502
1420 1422 1423 1424 1425 1426 1428 1429 1430 1432 1433 1434 1435 1436 1438 1439 1440 1442 1443 1445 1446 1448 1449 1451 1453 1454 1456 1457 1459 1460 1462 1463 1464 1466 1467 1469 1471 1473 1475 1477 1478 1480 1482 1484 1485 1486 1486 1487 1487 1488 1488 1489 1489 1490 1491 1492 1493 1494 1495 1495 1496 1496 1497 1497 1498 1499 1499 1500 1500
1419 1421 1422 1423 1424 1426 1427 1428 1429 1431 1432 1433 1434 1436 1437 1438 1439 1441 1442 1444 1445 1447 1448 1450 1451 1453 1454 1455 1457 1458 1459 1461 1462 1463 1465 1467 1469 1471 1473 1474 1476 1478 1480 1481 1482 1483 1484 1484 1485 1486 1486 1487 1488 1488 1489 1490 1491 1491 1492 1493 1493 1494 1495 1495 1496 1497 1498 1498 1498
1418 1420 1421 1423 1424 1425 1426 1427 1428 1429 1431 1432 1433 1435 1436 1437 1438 1439 1441 1442 1444 1445 1447 1448 1449 1451 1452 1454 1455 1457 1458 1459 1460 1462 1463 1465 1467 1468 1470 1472 1474 1476 1477 1478 1480 1480 1481 1482 1483 1483 1484 1485 1486 1487 1487 1488 1488 1489 1490 1490 1491 1492 1493 1493 1494 1495 1496 1496 1497
1418 1419 1420 1421 1423 1423 1425 1426 1427 1428 1429 1430 1432 1433 1435 1436 1437 1438 1439 1441 1443 1444 1445 1447 1448 1449 1451 1452 1454 1455 1456 1458 1459 1460 1461 1463 1464 1466 1468 1469 1471 1473 1475 1476 1477 1478 1479 1479 1480 1481 1482 1483 1484 1485 1486 1486 1487 1487 1488 1488 1489 1490 1491 1492 1492 1493 1493 1494 1495
1416 1418 1418 1420 1421 1422 1423 1425 1426 1427 1428 1429 1431 1432 1433 1435 1436 1437 1438 1439 1441 1443 1444 1445 1447 1448 1450 1451 1452 1453 1455 1456 1457 1458 1459 1461 1462 1464 1465 1467 1469 1471 1472 1473 1475 1476 1477 1478 1478 1479 1480 1481 1482 1483 1484 1485 1485 1485 1486 1486 1487 1488 1488 1489 1490 1491 1492 1492 1493
1415 1416 1417 1418 1419 1421 1422 1423 1425 1426 1427 1428 1429 1431 1432 1433 1435 1436 1437 1438 1439 1441 1443 1444 1446 1447 1448 1449 1451 1452 1453 1455 1456 1457 1458 1460 1461 1463 1464 1466 1467 1469 1470 1472 1473 1474 1475 1476 1477 1477 1478 1479 1480 1481 1482 1483 1483 1484 1484 1485 1485 1486 1486 1487 1488 1488 1489 1489 1490
1414 1415 1416 1417 1418 1420 1421 1422 1423 1425 1426 1427 1428 1429 1431 1432 1434 1435 1436 1437 1438 1440 1442 1443 1444 1446 1447 1448 1450 1451 1452 1453 1455 1456 1457 1459 1460 1461 1463 1464 1466 1467 1469 1470 1471 1472 1473 1474 1475 1475 1476 1477 1478 1479 1480 1481 1482 1483 1483 1483 1484 1484 1484 1485 1485 1486 1486 1487 1487
1413 1415 1416 1417 1418 1419 1420 1421 1423 1424 1425 1426 1427 1428 1430 1431 1433 1434 1435 1436 1437 1439 1440 1442 1443 1445 1446 1448 1449 1450 1451 1453 1454 1455 1457 1458 1459 1460 1462 1463 1464 1466 1467 1468 1469 1470 1471 1472 1473 1474 1475 1475 1476 1477 1478 1479 1480 1481 1481 1482 1482 1482 1482 1483 1483 1483 1483 1484 1484
1412 1414 1415 1417 1417 1418 1419 1420 1422 1423 1424 1425 1426 1428 1429 1430 1432 1433 1434 1435 1437 1438 1439 1441 1442 1444 1445 1447 1448 1449 1450 1452 1453 1454 1456 1457 1458 1459 1461 1462 1463 1464 1466 1467 1468 1468 1469 1470 1471 1472 1473 1474 1474 1475 1476 1477 1478 1479 1479 1480 1480 1480 1480 1480 1481 1481 1481 1482 1483
1411 1413 1414 1416 1417 1418 1418 1419 1421 1422 1423 1425 1426 1427 1428 1429 1431 1432 1433 1435 1436 1437 1438 1440 1441 1443 1444 1446 1447 1448 1449 1451 1452 1453 1454 1456 1457 1458 1459 1461 1462 1463 1464 1465 1466 1467 1468 1469 1470 1471 1471 1472 1473 1473 1474 1475 1476 1477 1477 1478 1478 1478 1478 1478 1479 1479 1480 1480 1481
1410 1412 1413 1415 1416 1417 1418 1419 1420 1421 1422 1423 1425 1426 1427 1428 1430 1431 1433 1434 1435 1436 1438 1439 1440 1442 1443 1445 1446 1448 1448 1450 1451 1452 1453 1454 1456 1457 1458 1459 1460 1461 1462 1463 1464 1465 1466 1467 1468 1469 1469 1470 1471 1472 1472 1473 1474 1474 1474 1475 1475 1476 1476 1477 1477 1478 1478 1478 1479
1409 1411 1412 1413 1415 1416 1417 1418 1419 1420 1421 1423 1424 1425 1426 1428 1429 1430 1431 1433 1434 1435 1437 1438 1439 1441 1443 1444 1445 1446 1447 1448 1449 1450 1452 1453 1454 1455 1457 1458 1459 1460 1461 1462 1463 1463 1464 1465 1466 1467 1468 1468 1469 1470 1470 1471 1471 1472 1472 1472 1473 1473 1474 1474 1475 1475 1476 1476 1477
1408 1409 1411 1412 1413 1415 1416 1417 1418 1419 1420 1422 1423 1424 1425 1427 1428 1429 1430 1432 1433 1434 1436 1437 1438 1440 1441 1442 1443 1445 1446 1447 1448 1449 1450 1451 1452 1453 1455 1456 1457 1458 1459 1460 1461 1462 1463 1464 1464 1465 1466 1467 1467 1468 1468 1469 1469 1469 1470 1470 1471 1471 1472 1473 1473 1473 1474 1474 1475
1407 1408 1409 1411 1412 1413 1414 1416 1417 1418 1419 1421 1422 1423 1424 1426 1427 1428 1429 1431 1432 1433 1434 1436 1437 1438 1439 1441 1442 1443 1444 1445 1446 1447 1448 1449 1451 1452 1453 1454 1455 1456 1457 1458 1459 1460 1461 1462 1463 1464 1464 1465 1465 1466 1466 1466 1467 1467 1468 1468 1469 1469 1470 1470 1471 1471 1472 1473 1473
1405 1406 1408 1409 1411 1412 1413 1415 1416 1417 1418 1419 1421 1422 1423 1425 1426 1427 1428 1429 1431 1432 1433 1434 1435 1437 1438 1439 1440 1441 1442 1443 1444 1445 1447 1448 1449 1450 1451 1452 1453 1454 1455 1456 1457 1458 1459 1460 1461 1462 1463 1463 1463 1463 1464 1464 1465 1465 1466 1467 1467 1468 1468 1468 1469 1469 1470 1470 1471
1403 1404 1406 1408 1409 1411 1412 1413 1414 1416 1417 1418 1419 1421 1422 1423 1425 1426 1427 1428 1429 1430 1432 1433 1434 1435 1436 1437 1438 1439 1441 1442 1443 1444 1445 1446 1448 1448 1449 1451 1452 1453 1453 1454 1456 1457 1458 1458 1459 1460 1461 1461 1462 1462 1462 1462 1463 1463 1464 1465 1465 1466 1466 1466 1467 1467 1468 1468 1468
1401 1403 1404 1406 1407 1409 1410 1412 1413 1414 1416 1417 1418 1419 1421 1422 1423 1424 1425 1426 1427 1428 1429 1431 1432 1433 1434 1435 1436 1438 1439 1440 1441 1443 1444 1445 1446 1447 1448 1449 1450 1451 1452 1453 1454 1455 1456 1457 1458 1458 1459 1459 1459 1459 1459 1460 1461 1461 1462 1463 1463 1463 1463 1464 1464 1465 1465 1466 1466
1400 1401 1402 1404 1405 1407 1408 1410 1412 1413 1414 1415 1417 1418 1419 1420 1421 1422 1423 1424 1426 1427 1428 1429 1430 1431 1432 1433 1434 1436 1437 1438 1440 1441 1442 1443 1444 1445 1446 1447 1448 1449 1450 1451 1452 1453 1453 1454 1455 1456 1457 1458 1458 1458 1458 1458 1458 1459 1459 1460 1460 1461 1461 1462 1462 1463 1463 1463 1464
1398 1399 1400 1402 1403 1405 1407 1408 1410 1411 1413 1414 1415 1416 1417 1418 1419 1420 1422 1423 1424 1426 1427 1428 1429 1430 1431 1432 1433 1434 1435 1437 1438 1439 1440 1441 1442 1443 1444 1446 1447 1447 1448 1448 1449 1450 1451 1452 1453 1453 1454 1455 1456 1456 1456 1457 1457 1457 1457 1458 1458 1459 1459 1460 1460 1461 1461 1462 1462
1397 1398 1399 1400 1402 1403 1405 1406 1408 1409 1411 1412 1413 1414 1415 1416 1418 1419 1420 1422 1423 1424 1425 1426 1427 1428 1429 1430 1431 1432 1433 1435 1436 1437 1438 1439 1441 1442 1443 1444 1445 1446 1446 1446 1447 1448 1448 1449 1450 1451 1452 1453 1453 1454 1454 1455 1455 1455 1455 1456 1457 1457 1458 1458 1459 1459 1459 1458 1458
1395 1397 1398 1398 1400 1401 1403 1404 1406 1408 1409 1410 1411 1412 1413 1415 1416 1418 1419 1420 1421 1423 1424 1425 1426 1427 1428 1429 1430 1431 1432 1433 1434 1436 1437 1438 1439 1440 1441 1442 1443 1444 1444 1444 1444 1445 1446 1447 1448 1449 1450 1451 1452 1452 1453 1453 1453 1453 1454 1454 1455 1456 1457 1457 1457 1457 1456 1456 1456
1394 1395 1396 1397 1398 1399 1401 1402 1404 1405 1407 1408 1409 1410 1412 1413 1414 1416 1417 1418 1420 1421 1423 1424 1425 1426 1427 1428 1429 1430 1431 1432 1433 1434 1435 1436 1437 1438 1439 1441 1442 1442 1441 1441 1442 1442 1443 1444 1445 1447 1448 1449 1450 1450 1451 1451 1452 1452 1452 1453 1453 1454 1455 1455 1454 1454 1453 1453 1453
1392 1393 1395 1396 1397 1398 1399 1400 1402 1403 1404 1406 1407 1408 1410 1412 1413 1414 1416 1417 1419 1420 1422 1423 1424 1426 1427 1428 1428 1429 1430 1431 1432 1433 1433 1434 1435 1437 1438 1439 1438 1437 1436 1437 1438 1439 1441 1442 1443 1444 1445 1447 1448 1448 1449 1449 1450 1450 1451 1451 1452 1452 1453 1453 1452 1451 1450 1451 1451
1391 1392 1393 1394 1395 1396 1398 1398 1400 1401 1402 1404 1405 1407 1408 1410 1412 1413 1415 1416 1418 1419 1420 1422 1423 1425 1426 1427 1428 1428 1429 1430 1431 1431 1432 1433 1434 1436 1437 1436 1433 1432 1433 1434 1436 1437 1438 1440 1441 1442 1443 1444 1445 1446 1447 1448 1448 1448 1448 1449 1449 1450 1450 1450 1448 1448 1448 1448 1449
1390 1391 1392 1393 1394 1395 1396 1397 1398 1399 1400 1402 1403 1405 1407 1409 1410 1412 1414 1415 1417 1418 1419 1421 1423 1424 1425 1427 1428 1430 1430 1430 1430 1431 1432 1433 1432 1433 1432 1430 1429 1430 1431 1433 1434 1435 1437 1438 1438 1439 1440 1442 1443 1443 1444 1445 1446 1446 1446 1447 1447 1448 1447 1446 1446 1446 1446 1447 1448
1388 1389 1391 1392 1393 1394 1395 1396 1396 1397 1398 1400 1402 1403 1405 1407 1409 1411 1413 1414 1416 1418 1419 1421 1423 1424 1425 1425 1427 1427 1426 1425 1425 1427 1428 1428 1427 1427 1427 1427 1428 1429 1430 1431 1433 1434 1435 1435 1436 1437 1438 1439 1440 1441 1442 1443 1443 1443 1444 1445 1445 1445 1444 1444 1444 1444 1444 1445 1445
1387 1388 1389 1390 1392 1393 1393 1394 1395 1395 1396 1398 1400 1402 1403 1405 1407 1409 1411 1413 1415 1418 1419 1419 1420 1421 1421 1420 1419 1418 1418 1420 1421 1423 1423 1423 1423 1424 1425 1426 1427 1428 1429 1430 1431 1432 1433 1434 1434 1435 1436 1437 1439 1440 1440 1441 1441 1442 1442 1443 1443 1442 1441 1441 1442 1442 1443 1443 1443
1386 1387 1388 1389 1390 1391 1392 1393 1394 1394 1395 1396 1398 1400 1402 1404 1406 1408 1410 1413 1415 1416 1416 1415 1415 1415 1416 1415 1415 1416 1417 1418 1420 1420 1421 1421 1422 1423 1424 1425 1426 1427 1428 1429 1430 1431 1431 1432 1433 1433 1434 1436 1437 1438 1439 1439 1440 1440 1441 1441 1440 1439 1439 1439 1440 1440 1441 1441 1442